Hazard, Kentucky, United States (41701)
Lat: 37.25N, Lon: 83.19W
Wx Zone: KYZ115
Local Info
Past Weather Observations for Tuesday, April 22, 2014

NOTE: This archive is for the closest National Weather Service station to Hazard. Information may differ from the station used for current weather conditions.

Time Weather Temperature Dewpoint Humidity Pressure Winds Precip Visibility
23:53
Clear
52°F / 11°C 30°F / -1°C 44% 29.95 in
(1014 mb)
Calm - 10SM
22:53
Clear
55°F / 13°C 28°F / -2°C 36% 29.92 in
(1013 mb)
Variable 5.8 mph
(Variable 9 kph)
- 10SM
21:53
Clear
57°F / 14°C 28°F / -2°C 33% 29.92 in
(1013 mb)
NNW 8.1 mph
(NNW 13 kph)
- 10SM
20:53
Clear
61°F / 16°C 32°F / 0°C 34% 29.89 in
(1012 mb)
NNW 9.2 mph
(NNW 15 kph)
- 10SM
19:53
Clear
64°F / 18°C 34°F / 1°C 32% 29.83 in
(1010 mb)
Variable 6.9 mph
(Variable 11 kph)
- 10SM
18:53
Clear
66°F / 19°C 37°F / 3°C 35% 29.83 in
(1010 mb)
W 10.4 mph
(W 17 kph)
- 10SM
17:53
Clear
70°F / 21°C 45°F / 7°C 40% 29.8 in
(1009 mb)
NW 8.1 mph
(NW 13 kph)
- 10SM
16:53
Partly Cloudy
73°F / 23°C 46°F / 8°C 38% 29.77 in
(1008 mb)
W 10.4 mph
(W 17 kph)
- 10SM
15:53
Partly Cloudy
73°F / 23°C 48°F / 9°C 41% 29.77 in
(1008 mb)
W 9.2 mph
(W 15 kph)
- 10SM
14:53
Partly Cloudy
73°F / 23°C 52°F / 11°C 47% 29.8 in
(1009 mb)
NW 10.4 mph
(NW 17 kph)
- 10SM
13:53
Mostly Cloudy
72°F / 22°C 54°F / 12°C 53% 29.8 in
(1009 mb)
W 9.2 mph
(W 15 kph)
- 10SM
12:53
Overcast
70°F / 21°C 54°F / 12°C 57% 29.83 in
(1010 mb)
SW 6.9 mph
(SW 11 kph)
- 10SM
11:53
Overcast
66°F / 19°C 55°F / 13°C 68% 29.83 in
(1010 mb)
Variable 3.5 mph
(Variable 6 kph)
- 10SM
10:53
Overcast
63°F / 17°C 55°F / 13°C 77% 29.86 in
(1011 mb)
Calm - 10SM
09:53
Overcast
63°F / 17°C 55°F / 13°C 77% 29.86 in
(1011 mb)
Variable 4.6 mph
(Variable 7 kph)
- 9SM
09:02
Mostly Cloudy
61°F / 16°C 55°F / 13°C 83% 29.86 in
(1011 mb)
Calm - 8SM
08:53
Mostly Cloudy
61°F / 16°C 55°F / 13°C 83% 29.86 in
(1011 mb)
Calm - 8SM
08:50
Overcast
61°F / 16°C 55°F / 13°C 83% 29.86 in
(1011 mb)
Calm - 8SM
07:53
Overcast
Fog And Mist
57°F / 14°C 55°F / 13°C 94% 29.86 in
(1011 mb)
Calm 0.03 in
(0.76 mm)
4SM
07:51
Overcast
Fog And Mist
57°F / 14°C 55°F / 13°C 94% 29.86 in
(1011 mb)
Calm 0.03 in
(0.76 mm)
4SM
07:07
Overcast
Light Rain
57°F / 14°C 54°F / 12°C 88% 29.86 in
(1011 mb)
SSW 4.6 mph
(SSW 7 kph)
0.03 in
(0.76 mm)
4SM
07:04
Overcast
Light Rain
57°F / 14°C 54°F / 12°C 88% 29.86 in
(1011 mb)
SSW 4.6 mph
(SSW 7 kph)
0.03 in
(0.76 mm)
2SM
06:55
Overcast
Rain
57°F / 14°C 54°F / 12°C 88% 29.86 in
(1011 mb)
SSW 6.9 mph
(SSW 11 kph)
0.00 in
(0.00 mm)
1 1/2SM
06:53
Overcast
Rain
57°F / 14°C 54°F / 12°C 88% 29.86 in
(1011 mb)
Variable 6.9 mph
(Variable 11 kph)
0.01 in
(0.25 mm)
2SM
05:53
Overcast
63°F / 17°C 48°F / 9°C 59% 29.86 in
(1011 mb)
WNW 6.9 mph
(WNW 11 kph)
- 10SM
04:53
Overcast
64°F / 18°C 46°F / 8°C 52% 29.83 in
(1010 mb)
Variable 4.6 mph
(Variable 7 kph)
- 10SM
03:53
Overcast
64°F / 18°C 46°F / 8°C 52% 29.83 in
(1010 mb)
Variable 3.5 mph
(Variable 6 kph)
- 10SM
02:53
Overcast
64°F / 18°C 45°F / 7°C 49% 29.86 in
(1011 mb)
SW 3.5 mph
(SW 6 kph)
- 10SM
01:53
Overcast
64°F / 18°C 45°F / 7°C 49% 29.89 in
(1012 mb)
SW 3.5 mph
(SW 6 kph)
0.00 in
(0.00 mm)
10SM
00:53
Overcast
66°F / 19°C 43°F / 6°C 43% 29.89 in
(1012 mb)
SW 4.6 mph
(SW 7 kph)
- 10SM
Time Weather Temperature Dewpoint Humidity Pressure Winds Precip Visibility


Weather for websites

WeatherForYou.com, LLC is not responsible for any damages or problems caused by this service. Current weather conditions are obtained from the closest station including government and personal stations which may have varying degrees of accuracy. Weather forecasts are derived from the NOAA NDFD. Like all things, this site belongs to Jesus Christ... He just trusts me to maintain it. If you have any questions or comments email webmaster@weatherforyou.com

Copyright © 2014, WeatherForYou.com LLC. All rights reserved.